Hourly Weather Lugi

Today, 17 June, Thursday

Time Temperature Precipitation Wind Pressure Humidity
00:00 +12°C° 0 mm 2 mps 751 mmHg 88%
01:00 +12°C° 0 mm 2 mps 751 mmHg 90%
02:00 +12°C° 0 mm 2 mps 751 mmHg 89%
03:00 +12°C° 0 mm 2 mps 751 mmHg 89%
04:00 +10°C° 0 mm 2 mps 751 mmHg 89%
05:00 +14°C° 0 mm 2 mps 751 mmHg 81%
06:00 +16°C° 0 mm 2 mps 752 mmHg 74%
07:00 +18°C° 0 mm 2 mps 752 mmHg 66%
08:00 +20°C° 0 mm 3 mps 752 mmHg 60%
09:00 +22°C° 0 mm 3 mps 752 mmHg 55%
10:00 +24°C° 0 mm 3 mps 752 mmHg 49%
11:00 +25°C° 0 mm 4 mps 752 mmHg 47%
12:00 +26°C° 0 mm 4 mps 752 mmHg 45%
13:00 +26°C° 0 mm 4 mps 752 mmHg 43%
14:00 +26°C° 0 mm 4 mps 752 mmHg 44%
15:00 +26°C° 0 mm 3 mps 752 mmHg 46%
16:00 +26°C° 0 mm 3 mps 751 mmHg 47%
17:00 +25°C° 0 mm 3 mps 751 mmHg 55%
18:00 +22°C° 0 mm 3 mps 751 mmHg 62%
19:00 +20°C° 0 mm 2 mps 752 mmHg 70%
20:00 +19°C° 0 mm 2 mps 752 mmHg 74%
21:00 +18°C° 0 mm 2 mps 752 mmHg 77%
22:00 +16°C° 0 mm 2 mps 752 mmHg 81%
23:00 +16°C° 0 mm 2 mps 752 mmHg 83%

Tomorrow, 18 June, Friday

Time Temperature Precipitation Wind Pressure Humidity
00:00 +15°C° 0 mm 2 mps 752 mmHg 86%
01:00 +14°C° 0 mm 3 mps 752 mmHg 89%
02:00 +14°C° 0 mm 3 mps 752 mmHg 90%
03:00 +14°C° 0 mm 3 mps 752 mmHg 92%
04:00 +14°C° 0 mm 3 mps 752 mmHg 94%
05:00 +17°C° 0 mm 3 mps 752 mmHg 86%
06:00 +19°C° 0 mm 3 mps 752 mmHg 78%
07:00 +21°C° 0 mm 3 mps 752 mmHg 71%
08:00 +23°C° 0 mm 4 mps 752 mmHg 66%
09:00 +26°C° 0 mm 4 mps 752 mmHg 60%
10:00 +27°C° 0 mm 4 mps 751 mmHg 55%
11:00 +28°C° 0 mm 4 mps 751 mmHg 53%
12:00 +29°C° 0 mm 4 mps 751 mmHg 50%
13:00 +30°C° 0 mm 5 mps 751 mmHg 48%
14:00 +30°C° 0 mm 5 mps 750 mmHg 49%
15:00 +29°C° 0 mm 4 mps 750 mmHg 51%
16:00 +29°C° 0 mm 4 mps 750 mmHg 52%
17:00 +28°C° 0 mm 4 mps 750 mmHg 59%
18:00 +26°C° 0 mm 4 mps 750 mmHg 65%
19:00 +25°C° 0 mm 3 mps 750 mmHg 72%
20:00 +22°C° 0 mm 3 mps 750 mmHg 76%
21:00 +21°C° 0 mm 3 mps 750 mmHg 81%
22:00 +19°C° 0 mm 3 mps 750 mmHg 85%
23:00 +19°C° 0 mm 3 mps 750 mmHg 87%

Day after tomorrow, 19 June, Saturday

Time Temperature Precipitation Wind Pressure Humidity
00:00 +18°C° 0 mm 3 mps 750 mmHg 88%
01:00 +17°C° 0 mm 3 mps 750 mmHg 90%
02:00 +17°C° 0 mm 3 mps 750 mmHg 91%
03:00 +17°C° 0 mm 3 mps 750 mmHg 92%
04:00 +17°C° 0 mm 3 mps 750 mmHg 94%
05:00 +19°C° 0 mm 3 mps 750 mmHg 86%
06:00 +21°C° 0 mm 4 mps 750 mmHg 78%
07:00 +23°C° 0 mm 4 mps 750 mmHg 70%
08:00 +25°C° 0 mm 4 mps 750 mmHg 65%
09:00 +27°C° 0 mm 4 mps 750 mmHg 60%
10:00 +28°C° 0 mm 5 mps 750 mmHg 56%
11:00 +29°C° 0 mm 5 mps 749 mmHg 53%
12:00 +30°C° 0 mm 5 mps 749 mmHg 51%
13:00 +30°C° 0 mm 5 mps 749 mmHg 48%
14:00 +30°C° 0 mm 4 mps 749 mmHg 49%
15:00 +30°C° 0 mm 4 mps 748 mmHg 50%
16:00 +30°C° 0 mm 4 mps 748 mmHg 51%
17:00 +29°C° 0 mm 4 mps 748 mmHg 58%
18:00 +28°C° 0 mm 3 mps 748 mmHg 65%
19:00 +26°C° 0 mm 3 mps 748 mmHg 72%
20:00 +25°C° 0 mm 3 mps 748 mmHg 77%
21:00 +22°C° 0 mm 3 mps 748 mmHg 82%
22:00 +21°C° 0 mm 3 mps 748 mmHg 87%
23:00 +21°C° 0 mm 3 mps 748 mmHg 88%

20 June, Sunday

Time Temperature Precipitation Wind Pressure Humidity
00:00 +20°C° 0 mm 3 mps 748 mmHg 90%
01:00 +20°C° 0 mm 3 mps 748 mmHg 92%
02:00 +19°C° 0 mm 3 mps 748 mmHg 92%
03:00 +19°C° 0 mm 3 mps 748 mmHg 92%
04:00 +19°C° 0 mm 3 mps 748 mmHg 92%
05:00 +21°C° 0 mm 3 mps 748 mmHg 84%
06:00 +22°C° 0 mm 4 mps 748 mmHg 76%
07:00 +25°C° 0 mm 4 mps 748 mmHg 68%
08:00 +26°C° 0 mm 4 mps 748 mmHg 63%
09:00 +27°C° 0 mm 4 mps 748 mmHg 58%
10:00 +28°C° 0 mm 4 mps 748 mmHg 52%
11:00 +29°C° 0 mm 4 mps 748 mmHg 50%
12:00 +29°C° 0 mm 4 mps 748 mmHg 48%
13:00 +30°C° 0 mm 4 mps 748 mmHg 47%
14:00 +30°C° 0 mm 4 mps 747 mmHg 47%
15:00 +30°C° 0 mm 3 mps 747 mmHg 48%
16:00 +30°C° 0 mm 3 mps 747 mmHg 49%
17:00 +28°C° 0 mm 3 mps 747 mmHg 56%
18:00 +27°C° 0 mm 3 mps 746 mmHg 63%
19:00 +25°C° 0 mm 3 mps 746 mmHg 70%
20:00 +24°C° 0 mm 3 mps 746 mmHg 73%
21:00 +23°C° 0 mm 2 mps 747 mmHg 76%
22:00 +21°C° 0 mm 2 mps 747 mmHg 79%
23:00 +20°C° 0 mm 2 mps 747 mmHg 81%

21 June, Monday

Time Temperature Precipitation Wind Pressure Humidity
00:00 +20°C° 0 mm 2 mps 747 mmHg 83%
01:00 +19°C° 0 mm 2 mps 747 mmHg 85%
02:00 +19°C° 0 mm 2 mps 747 mmHg 86%
03:00 +19°C° 0 mm 2 mps 746 mmHg 87%
04:00 +19°C° 0 mm 3 mps 746 mmHg 87%
05:00 +21°C° 0 mm 3 mps 746 mmHg 81%
06:00 +22°C° 0 mm 3 mps 747 mmHg 75%
07:00 +25°C° 0 mm 4 mps 747 mmHg 69%
08:00 +27°C° 0 mm 4 mps 746 mmHg 64%
09:00 +28°C° 0 mm 5 mps 746 mmHg 59%
10:00 +29°C° 0 mm 5 mps 746 mmHg 54%
11:00 +30°C° 0 mm 5 mps 746 mmHg 52%
12:00 +30°C° 0 mm 5 mps 746 mmHg 50%
13:00 +32°C° 0 mm 5 mps 746 mmHg 47%
14:00 +32°C° 0 mm 5 mps 745 mmHg 48%
15:00 +32°C° 0 mm 5 mps 745 mmHg 49%
16:00 +32°C° 0 mm 4 mps 745 mmHg 50%
17:00 +29°C° 0 mm 4 mps 745 mmHg 56%
18:00 +28°C° 0 mm 3 mps 745 mmHg 63%
19:00 +26°C° 0 mm 3 mps 744 mmHg 69%
20:00 +25°C° 0 mm 3 mps 745 mmHg 74%
21:00 +24°C° 0 mm 3 mps 745 mmHg 79%
22:00 +21°C° 0 mm 3 mps 745 mmHg 84%
23:00 +21°C° 0 mm 2 mps 745 mmHg 85%

22 June, Tuesday

Time Temperature Precipitation Wind Pressure Humidity
00:00 +20°C° 0 mm 2 mps 745 mmHg 87%
01:00 +20°C° 0 mm 2 mps 745 mmHg 88%
02:00 +20°C° 0 mm 2 mps 745 mmHg 89%
03:00 +20°C° 0 mm 2 mps 745 mmHg 90%
04:00 +19°C° 0 mm 2 mps 745 mmHg 91%
05:00 +21°C° 0 mm 2 mps 744 mmHg 84%
06:00 +24°C° 0 mm 3 mps 744 mmHg 77%
07:00 +26°C° 0 mm 3 mps 744 mmHg 70%
08:00 +28°C° 0 mm 3 mps 744 mmHg 64%
09:00 +29°C° 0 mm 4 mps 744 mmHg 59%
10:00 +30°C° 0 mm 4 mps 744 mmHg 53%
11:00 +30°C° 0.6 mm 4 mps 744 mmHg 56%
12:00 +30°C° 0.6 mm 4 mps 744 mmHg 59%
13:00 +30°C° 0.6 mm 4 mps 744 mmHg 62%
14:00 +29°C° 0.6 mm 4 mps 744 mmHg 63%
15:00 +29°C° 0.6 mm 4 mps 744 mmHg 65%
16:00 +28°C° 0.6 mm 4 mps 744 mmHg 67%
17:00 +28°C° 0.3 mm 3 mps 744 mmHg 71%
18:00 +27°C° 0.3 mm 3 mps 744 mmHg 76%
19:00 +26°C° 0.3 mm 3 mps 744 mmHg 80%
20:00 +25°C° 0 mm 3 mps 744 mmHg 83%
21:00 +24°C° 0 mm 3 mps 744 mmHg 86%
22:00 +23°C° 0 mm 2 mps 744 mmHg 90%
23:00 +21°C° 0.1 mm 2 mps 744 mmHg 90%
Show more

We Need Your Consent

Meteoprog and our Service Providers may store and access personal data such as cookies, device identifiers or other similar technologies on your device and process such data to personalise content and ads, as well as provide social media features and to analyse the traffic.

  • Store and/or access information on your device

    Cookies, device identifiers or other information can be stored or accessed on your device for the purposes indicated above.

  • Personalised ads and content, ad and content measurement, audience insights, and products development

    Ads and content can be personalised based on a profile. More data can be added to better personalise ads and content. Ad and content performance can be measured. Insights about the audience who saw the ads and content can be derived. Such data can be used to develop or improve user’s experience, systems and software.

By clicking ‘I Agree’ you will allow the use of indicated cookies, device identifiers, web beacons or other similar technologies. Your settings can be changed in the browser on your device.

For certain purposes, legitimate interests may be relied on, rather than consent. You can read more about this in our Privacy and Cookie Policy.